CZ-4B DEB, 43430

Orbit data source: Space-Track

CZ-4B DEB, 43430 is space debris in LEO originally from a launch on Thu, 15 Jun 2017 UTC launched from the Jiuquan Satellite Launch Center, China (JSC). Debris objects in space refer to the collection of defunct objects orbiting the Earth. Examples of debris include non-operational satellites, rocket bodies, and fragments generated from explosions, collisions, or faulty payload assembly.

Loading next visibility...
Identifier
43430, 2017-034F
Orbit
LEO
Country
Flag of CNCN / PRC
Related business
Manufacturer
SAST
Mission
Spacecraft
Bus & Motor
Unknown
Mass
Unknown
Launch date (UTC)
2017-06-15 (9 years ago)
Launch vehicle
Unknown
Launch site
Jiuquan Satellite Launch Center, China (JSC)
Object type
Payload
Rocket body
Debris
Shape & HBR
Unknown shape, 0.1 m
Radar Cross Section
Small (<0.1 m²)

Expand to show TLE details & history
Last TLE update: 7 hours ago

TLE from 7 hours ago
0 CZ-4B DEB
1 43430U 17034F   26036.47379497  .00016202  00000-0  13122-2 0  9998
2 43430  42.9914  82.0898 0125894  98.7720 262.7399 14.93464855456677
Epoch: 2026-02-05T11:22Z
TLE epoch observation values (Epoch: 2026-02-05T11:22:15.885Z)
Latitude
-0.00005°
Longitude
135.89805°
Altitude
599.083 km
Speed
7.555 km/s
True Right ascension
05h 28m 21s
True Declination
0° 00' 00"
Sunlit
Object was in full shadow at epoch
Visualization orbit readout
Latitude
Unknown
Longitude
Unknown
Altitude
Unknown
Speed
Unknown
Apparent Right ascension
Unknown
Apparent Declination
Unknown
Sunlit
N/A
Visualization observer readout
Local Sidereal Time
20:54:16
Azimuth
Unknown
Elevation
Unknown
Doppler factor
Unknown
Orbital elements
Apogee altitude
676.773 km
Perigee altitude
501.347 km
Semi-major axis
6,967.197 km
Eccentricity
0.01259
Inclination
42.9914°
RAAN
82.0898°
Arg. of periapsis
98.772°
True anomaly
261.31182°
Mean anomaly
262.7399°
Eccentric anomaly
262.02556°
Mean motion
3.73212 °/min
Orbital period
96.46 mins
BSTAR
0.0013122
Loading maneuver chart data...
Computing Atmospheric mass density...
Loading historical data...
Loading historical data...
Loading historical data...
Loading historical data...
Loading historical data...
Loading historical data...
Loading historical data...

Documentation

Showing up to 5 results
|